Regional Weather Roundup
Issued by NWS

Home | Current Version | Previous Version | Text Only | Print | Product List | Glossary On
Versions: 1 2 3 4 5 6 7 8 9 10 11 12 13 14 15 16 17 18 19 20 21 22 23 24 25 26 27 28 29 30 31 32 33 34 35 36 37 38 39 40 41 42 43 44 45 46 47 48 49 50
000
ASUS46 KPQR 200710
RWROR

OREGON REGIONAL WEATHER ROUNDUP
NATIONAL WEATHER SERVICE PORTLAND OR
1100 PM PST SUN NOV 19 2017

NOTE: "FAIR" INDICATES FEW OR NO CLOUDS BELOW 12,000 FEET WITH
NO SIGNIFICANT WEATHER AND/OR OBSTRUCTIONS TO VISIBILITY.

ORZ001>013-200800-
NORTHWEST OREGON


CITY           SKY/WX    TMP DP  RH WIND       PRES   REMARKS
ASTORIA        LGT RAIN  51  48  89 S25G44    29.60F FOG
NEWPORT        LGT RAIN  48  46  93 S21       29.75F
PORTLAND       LGT RAIN  46  44  93 E10       29.75F
VANCOUVER WA   LGT RAIN  47  45  93 VRB3G17   29.74F
SCAPPOOSE      LGT RAIN  45  45 100 SE8       29.73S
HILLSBORO      LGT RAIN  47  43  86 S10       29.72F
AURORA         LGT RAIN  48  44  86 SW9       29.75F
MCMINNVILLE    LGT RAIN  49  45  86 S17G28    29.73F
SALEM          CLOUDY    49  41  74 S16       29.75F
CORVALLIS      CLOUDY    47  44  90 S20       29.78F
EUGENE         CLOUDY    50  43  77 S20G26    29.80F
$$

ORZ021-028-200800-
SOUTHWEST OREGON


CITY           SKY/WX    TMP DP  RH WIND       PRES   REMARKS
NORTH BEND     CLOUDY    54  46  74 SE10      29.79F
BROOKINGS      RAIN      49  48  97 SE8       29.91F FOG
ROSEBURG       LGT RAIN  53  42  66 S7        29.85F
SEXTON SUMMIT  CLOUDY    38  36  92 S18G28    29.87S FOG     WCI  28
GRANTS PASS    LGT RAIN  41  39  93 CALM      29.97F
MEDFORD        LGT RAIN  37  36  96 CALM      29.98F
$$

ORZ014>016-041-200800-
COLUMBIA GORGE


CITY           SKY/WX    TMP DP  RH WIND       PRES   REMARKS
TROUTDALE      LGT RAIN  46  43  89 E5        29.75F
HOOD RIVER     LGT RAIN  37  36  93 CALM      29.75F
THE DALLES     CLOUDY    39  37  92 S3        29.75F FOG
$$

ORZ029>031-041-044-049-050-061>064-502-503-505>511-200800-
EASTERN OREGON


CITY           SKY/WX    TMP DP  RH WIND       PRES   REMARKS
MADRAS         CLOUDY    48  48 100 SE14G23   29.77F
REDMOND        PTCLDY    46  35  65 S17G26    29.79S
BEND           MOCLDY    45  36  70 SW24G33   29.80F
PRINEVILLE     PTCLDY    48  34  57 S10       29.82F
KLAMATH FALLS  CLOUDY    37  33  85 SE3       29.99F
LAKEVIEW       CLOUDY    39  28  64 SE12      30.03S WCI  32
HERMISTON      CLOUDY    41  32  70 CALM      29.73F
PENDLETON      CLOUDY    45  26  47 W7        29.71F
JOHN DAY       CLOUDY    51  26  38 SW15G37   29.86R
MEACHAM        CLOUDY    40  23  50 CALM      29.79S
LA GRANDE      CLOUDY    43  24  47 SE18G25   29.87R
BAKER CITY     CLOUDY    40  23  50 E17       29.89F WCI  31
BURNS          CLOUDY    32  28  85 CALM      29.94S
ROME             N/A     42  26  53 SE7       29.94R
ONTARIO        NOT AVBL
$$



USA.gov is the U.S. government's official web portal to all federal, state and local government web resources and services.